Regional Weather Roundup
Issued by NWS

Home | Current Version | Previous Version | Graphics & Text | Print | Product List | Glossary On
Versions: 1 2 3 4 5 6 7 8 9 10 11 12 13 14 15 16 17 18 19 20 21 22 23 24 25 26 27 28 29 30 31 32 33 34 35 36 37 38 39 40 41 42 43 44 45 46 47 48 49 50
000
ASUS43 KIND 301659
RWRIN

WEATHER ROUNDUP FOR INDIANA
NATIONAL WEATHER SERVICE INDIANAPOLIS IN
100 PM EDT TUE AUG 30 2016

NOTE: "FAIR" INDICATES FEW OR NO CLOUDS BELOW 12,000 FEET WITH NO
SIGNIFICANT WEATHER AND/OR OBSTRUCTIONS TO VISIBILITY.

* - STATION DOES NOT REPORT WEATHER SUCH AS PRECIPITATION OR FOG.

+ - STATION NOT QUALITY CONTROLLED BY THE NATIONAL WEATHER SERVICE.
    USE DATA WITH CAUTION...ESPECIALLY DEWPOINT AND RELATIVE
    HUMIDITY OBSERVATIONS.

INZ001>003-010>013-019-020-301800-
NORTHWEST INDIANA

CITY           SKY/WX    TMP DP  RH WIND       PRES   REMARKS
GARY /AIRPORT/ CLOUDY    79  75  89 VRB5      30.14F FOG
KNOX *+        CLOUDY    75  52  43 NE5       30.15R
MONTICELLO +   PTSUNNY   81  68  65 CALM      30.14S

$$

LMZ046-743>745-301800-
SOUTHERN LAKE MICHIGAN

STATION/POSITION TIME  TEMP    WIND        PRES    WAVE
                       AIR SEA DIR/SP/G            HT
                 (UTC) (F)     (DEG/KT/KT) (MB)    (FT)
BURNS HARBOR     1607   74     100/  7/ 15 1021.0R
MICHIGAN CITY    1600   72      90/  4/  7   N/A
5NW MICH CITY    1600   71 69  150/  6/  8   N/A     1

$$

INZ004-005-014>016-021>024-301800-
NORTH CENTRAL INDIANA

CITY           SKY/WX    TMP DP  RH WIND       PRES   REMARKS
ELKHART        LGT RAIN N/A N/A N/A CALM      30.14F
GOSHEN         CLOUDY    77  68  73 CALM      30.14F
PERU/GRISSOM   MOSUNNY   84  73  69 W6        30.13F
SOUTH BEND     MOSUNNY   73  72  96 S6        30.15F

$$

INZ006>009-017-018-025>027-301800-
NORTHEAST INDIANA

CITY           SKY/WX    TMP DP  RH WIND       PRES   REMARKS
ANGOLA *+      MOSUNNY   82  72  69 CALM      30.16F
FORT WAYNE     PTSUNNY   84  69  60 VRB5      30.15F

$$

INZ028-029-035-036-043>045-051>053-301800-
WEST CENTRAL INDIANA

CITY           SKY/WX    TMP DP  RH WIND       PRES   REMARKS
CRAWFORDSVL +  PTSUNNY   82  73  74 CALM      30.14F
LAFAYETTE      SUNNY     84  73  69 SW7       30.13F
TERRE HAUTE    SUNNY     88  71  57 VRB3      30.13F

$$

INZ030>032-037>040-046>048-054>057-064-065-301800-
CENTRAL INDIANA

CITY           SKY/WX    TMP DP  RH WIND       PRES   REMARKS
COLUMBUS       MOSUNNY   84  72  65 CALM      30.15F
INDIANAPOLIS   MOSUNNY   85  69  58 CALM      30.14F
-EAGLE CREEK   MOSUNNY   85  69  58 CALM      30.14F
KOKOMO *+      MOSUNNY   84  73  70 SW6       30.14F
MT COMFORT *+  MOSUNNY   84  72  65 CALM      30.16F
SHELBYVILLE    MOSUNNY   88  68  51 CALM      30.14F

$$

INZ033-034-041-042-049-050-058-059-301800-
EAST CENTRAL INDIANA

CITY           SKY/WX    TMP DP  RH WIND       PRES   REMARKS
MUNCIE         MOSUNNY   84  69  60 CALM      30.15F

$$

INZ060-061-067>069-081>083-085>088-301800-
SOUTHWEST INDIANA

CITY           SKY/WX    TMP DP  RH WIND       PRES   REMARKS
EVANSVILLE     MOSUNNY   89  71  55 CALM      30.11F HX  95
HUNTINGBURG *+ MOSUNNY   88  72  58 CALM      30.12F

$$

INZ062-063-066-070>080-084-089>092-301800-
SOUTH CENTRAL AND SOUTHEAST INDIANA

CITY           SKY/WX    TMP DP  RH WIND       PRES   REMARKS
BLOOMINGTON    SUNNY     86  70  58 SE6       30.14F
MADISON *+     SUNNY     86  64  48 CALM      30.16F

$$




USA.gov is the U.S. government's official web portal to all federal, state and local government web resources and services.